sat.trackr.live / text

‹ back to catalog

CARTOSAT-2F

NORAD 43111 · 2018-004A

PAYLOAD ACTIVE UNKNOWN

§ Identity

Operator
Country
IND
Launch date
2018-01-12
Launch site
SRILR
Launch vehicle
Mass (kg)
RCS (m²)

Purposes: earth_obs

External: N2YO · Heavens-Above · Gunter

§ Orbital elements

Epoch: 2026-05-25T03:44:14.436960Z

Period
94.78 min
Inclination
97.4801°
Eccentricity
0.0000948
Mean motion
15.19262299 rev/d
Perigee alt
507.4 km
Apogee alt
508.7 km
Semi-major
6,886.2 km
B*
1.9162e-4
RAAN
205.0124°
Arg perigee
49.1249°
Mean anomaly
311.0068°
Rev number
46,383

§ Raw data

CARTOSAT-2F1 43111U 18004A   26145.15572265  .00003971  00000+0  19162-3 0  99952 43111  97.4801 205.0124 0000948  49.1249 311.0068 15.19262299463834

JSON: /api/v1/satellites/43111 · /tle

For live sub-satellite position, see the globe view (requires WebGL).

§ Visibility from observer

Set your observer location to see the next 7 days of passes ≥ 10°. The values pass through the URL so the page stays shareable.

No JS? Fill the form by hand. The geolocation button needs JavaScript.

§ Radio — SatNOGS DB

ModeDescriptionDownlinkUplink
CW Beacon 2.246 GHz
BPSK S-band telemetry (800000) 2.242 GHz

2 transmitters · refreshed weekly from db.satnogs.org